| time (UTC) | temp C | wind direction | speed KPH | gust KPH | rain 1hr cm | rain 24hr cm | rain mn cm | humidity % | barometer mb |
| 20260510001526 | 9 | 250 | 0.0 | 9.7 | 0.00 | 0.00 | 0.00 | 95 | 1010.7 |
| 20260510000026 | 9 | 286 | 1.6 | 9.7 | 0.00 | 0.00 | 0.00 | 95 | 1010.7 |
| 20260509234525 | 9 | 219 | 1.6 | 11.3 | 0.00 | 0.00 | 0.00 | 95 | 1010.7 |
| 20260509233023 | 9 | 238 | 0.0 | 4.8 | 0.00 | 0.00 | 0.00 | 95 | 1010.8 |
| 20260509231522 | 9 | 252 | 0.0 | 4.8 | 0.00 | 0.00 | 0.00 | 95 | 1010.8 |
| 20260509230021 | 9 | 345 | 3.2 | 11.3 | 0.00 | 0.00 | 0.00 | 94 | 1010.7 |
| 20260509224520 | 9 | 258 | 3.2 | 11.3 | 0.00 | 0.00 | 0.00 | 94 | 1010.5 |
| 20260509223022 | 9 | 309 | 3.2 | 14.5 | 0.00 | 0.00 | 0.00 | 94 | 1010.5 |
| 20260509221515 | 9 | 272 | 1.6 | 6.4 | 0.00 | 0.00 | 0.00 | 94 | 1010.4 |
| 20260509220011 | 10 | 229 | 0.0 | 9.7 | 0.00 | 0.00 | 0.00 | 94 | 1010.2 |
| 20260509214509 | 10 | 254 | 0.0 | 9.7 | 0.00 | 0.00 | 0.00 | 94 | 1009.8 |
| 20260509213008 | 10 | 274 | 4.8 | 11.3 | 0.00 | 0.00 | 0.00 | 93 | 1009.6 |
| 20260509211507 | 10 | 284 | 1.6 | 16.1 | 0.00 | 0.00 | 0.00 | 93 | 1009.8 |
| 20260509210004 | 10 | 295 | 6.4 | 22.5 | 0.00 | 0.00 | 0.00 | 92 | 1009.6 |
| 20260509204504 | 10 | 276 | 8.0 | 25.7 | 0.00 | 0.00 | 0.00 | 90 | 1009.5 |
| 20260509203001 | 12 | 124 | 0.0 | 1.6 | 0.00 | 0.00 | 0.00 | 86 | 1008.0 |
| 20260509201501 | 12 | 153 | 1.6 | 8.0 | 0.00 | 0.00 | 0.00 | 85 | 1007.7 |
| 20260509200104 | 12 | 324 | 0.0 | 14.5 | 0.00 | 0.00 | 0.00 | 85 | 1007.5 |
| 20260509194601 | 12 | 258 | 1.6 | 8.0 | 0.00 | 0.00 | 0.00 | 84 | 1007.5 |
| 20260509193058 | 12 | 171 | 0.0 | 0.0 | 0.00 | 0.00 | 0.00 | 88 | 1007.1 |
| 20260509191600 | 12 | 171 | 0.0 | 3.2 | 0.00 | 0.00 | 0.00 | 87 | 1006.9 |
| 20260509190104 | 13 | 142 | 1.6 | 8.0 | 0.00 | 0.00 | 0.00 | 87 | 1006.5 |
| 20260509184558 | 13 | 98 | 1.6 | 8.0 | 0.00 | 0.00 | 0.00 | 87 | 1006.4 |
| 20260509183057 | 13 | 125 | 1.6 | 4.8 | 0.00 | 0.00 | 0.00 | 84 | 1006.7 |
| 20260509181608 | 15 | 125 | 0.0 | 6.4 | 0.00 | 0.00 | 0.00 | 80 | 1006.8 |
| 20260509180055 | 15 | 133 | 1.6 | 6.4 | 0.00 | 0.00 | 0.00 | 77 | 1006.7 |
| 20260509174555 | 15 | 148 | 1.6 | 14.5 | 0.00 | 0.00 | 0.00 | 77 | 1006.7 |
| 20260509173106 | 15 | 219 | 1.6 | 11.3 | 0.00 | 0.00 | 0.00 | 80 | 1006.7 |
| 20260509171606 | 14 | 150 | 3.2 | 14.5 | 0.00 | 0.00 | 0.00 | 82 | 1006.7 |
| 20260509170053 | 15 | 177 | 4.8 | 11.3 | 0.00 | 0.00 | 0.00 | 77 | 1006.7 |
| 20260509164551 | 15 | 134 | 0.0 | 4.8 | 0.00 | 0.00 | 0.00 | 77 | 1006.2 |
| 20260509163058 | 16 | 137 | 0.0 | 8.0 | 0.00 | 0.00 | 0.00 | 76 | 1006.6 |
| 20260509161550 | 16 | 153 | 1.6 | 8.0 | 0.00 | 0.00 | 0.00 | 77 | 1006.4 |
| 20260509160051 | 16 | 295 | 3.2 | 9.7 | 0.00 | 0.00 | 0.00 | 76 | 1006.5 |
| 20260509154545 | 15 | 84 | 1.6 | 6.4 | 0.00 | 0.00 | 0.00 | 87 | 1006.6 |
| 20260509153044 | 13 | 139 | 0.0 | 4.8 | 0.00 | 0.00 | 0.00 | 92 | 1006.8 |
| 20260509151544 | 12 | 138 | 0.0 | 4.8 | 0.00 | 0.00 | 0.00 | 90 | 1007.2 |
| 20260509150041 | 13 | 167 | 0.0 | 3.2 | 0.00 | 0.00 | 0.00 | 89 | 1007.2 |
| 20260509144540 | 13 | 114 | 0.0 | 11.3 | 0.00 | 0.00 | 0.00 | 88 | 1007.2 |
| 20260509143039 | 13 | 43 | 3.2 | 11.3 | 0.00 | 0.00 | 0.00 | 89 | 1007.0 |
| 20260509141537 | 13 | 128 | 3.2 | 9.7 | 0.00 | 0.00 | 0.00 | 88 | 1007.2 |
| 20260509140038 | 13 | 64 | 0.0 | 6.4 | 0.00 | 0.00 | 0.00 | 93 | 1007.6 |
| 20260509134548 | 13 | 183 | 1.6 | 8.0 | 0.00 | 0.00 | 0.00 | 95 | 1007.6 |
| 20260509133134 | 12 | 150 | 0.0 | 6.4 | 0.00 | 0.00 | 0.00 | 95 | 1008.0 |
| 20260509131535 | 11 | 315 | 0.0 | 1.6 | 0.00 | 0.00 | 0.00 | 95 | 1008.4 |
| 20260509130033 | 11 | 305 | 0.0 | 6.4 | 0.00 | 0.00 | 0.00 | 94 | 1008.2 |
| 20260509124532 | 11 | 265 | 3.2 | 9.7 | 0.00 | 0.00 | 0.00 | 94 | 1007.9 |
| 20260509123032 | 11 | 310 | 1.6 | 4.8 | 0.00 | 0.00 | 0.00 | 94 | 1007.6 |
| 20260509121537 | 11 | 314 | 4.8 | 11.3 | 0.00 | 0.00 | 0.00 | 93 | 1008.1 |
| 20260509120034 | 11 | 292 | 3.2 | 9.7 | 0.00 | 0.00 | 0.00 | 93 | 1007.9 |
| 20260509114531 | 11 | 323 | 1.6 | 8.0 | 0.00 | 0.00 | 0.00 | 93 | 1007.8 |
| 20260509113028 | 11 | 286 | 3.2 | 12.9 | 0.00 | 0.00 | 0.00 | 92 | 1007.9 |
| 20260509111527 | 11 | 207 | 3.2 | 11.3 | 0.00 | 0.00 | 0.00 | 91 | 1008.1 |
| 20260509110028 | 11 | 214 | 1.6 | 11.3 | 0.00 | 0.00 | 0.00 | 90 | 1008.1 |
| 20260509104526 | 12 | 225 | 3.2 | 9.7 | 0.00 | 0.00 | 0.00 | 89 | 1008.0 |
| 20260509103025 | 14 | 203 | 6.4 | 22.5 | 0.00 | 0.00 | 0.00 | 78 | 1007.9 |
| 20260509101525 | 15 | 241 | 3.2 | 17.7 | 0.00 | 0.00 | 0.00 | 73 | 1007.5 |
| 20260509100023 | 15 | 180 | 8.0 | 17.7 | 0.00 | 0.00 | 0.00 | 75 | 1007.5 |
| 20260509094519 | 14 | 69 | 1.6 | 11.3 | 0.00 | 0.00 | 0.00 | 77 | 1007.5 |
| 20260509093015 | 13 | 195 | 3.2 | 11.3 | 0.00 | 0.00 | 0.00 | 78 | 1007.8 |
| 20260509091525 | 13 | 171 | 3.2 | 11.3 | 0.00 | 0.00 | 0.00 | 78 | 1007.9 |
| 20260509090013 | 13 | 180 | 1.6 | 6.4 | 0.00 | 0.00 | 0.00 | 80 | 1007.9 |
| 20260509084519 | 13 | 130 | 1.6 | 16.1 | 0.00 | 0.00 | 0.00 | 80 | 1007.9 |
| 20260509083010 | 13 | 117 | 1.6 | 11.3 | 0.00 | 0.00 | 0.00 | 82 | 1007.6 |
| 20260509081509 | 13 | 146 | 3.2 | 9.7 | 0.00 | 0.00 | 0.00 | 83 | 1008.0 |
| 20260509080004 | 12 | 115 | 1.6 | 9.7 | 0.00 | 0.00 | 0.00 | 84 | 1007.8 |
| 20260509074503 | 12 | 82 | 0.0 | 4.8 | 0.00 | 0.00 | 0.00 | 86 | 1007.9 |
| 20260509073216 | 12 | 134 | 1.6 | 6.4 | 0.00 | 0.00 | 0.00 | 87 | 1007.8 |
| 20260509071558 | 11 | 108 | 1.6 | 3.2 | 0.00 | 0.00 | 0.00 | 89 | 1008.0 |
| 20260509070056 | 11 | 265 | 0.0 | 0.0 | 0.00 | 0.00 | 0.00 | 90 | 1008.2 |
| 20260509064554 | 11 | 266 | 0.0 | 0.0 | 0.00 | 0.00 | 0.00 | 90 | 1008.4 |
| 20260509063053 | 11 | 266 | 0.0 | 3.2 | 0.00 | 0.00 | 0.00 | 89 | 1008.2 |
| 20260509061556 | 11 | 147 | 0.0 | 8.0 | 0.00 | 0.00 | 0.00 | 89 | 1008.0 |
| 20260509060053 | 10 | 149 | 1.6 | 4.8 | 0.00 | 0.00 | 0.00 | 91 | 1007.9 |
| 20260509054559 | 10 | 45 | 0.0 | 0.0 | 0.00 | 0.00 | 0.00 | 91 | 1008.4 |
| 20260509053052 | 10 | 45 | 0.0 | 0.0 | 0.00 | 0.00 | 0.00 | 91 | 1008.2 |
| 20260509051558 | 10 | 51 | 0.0 | 0.0 | 0.00 | 0.00 | 0.00 | 92 | 1008.0 |
| 20260509050050 | 10 | 51 | 0.0 | 1.6 | 0.00 | 0.00 | 0.00 | 91 | 1007.6 |
| 20260509044549 | 10 | 20 | 0.0 | 0.0 | 0.00 | 0.00 | 0.00 | 91 | 1007.2 |
| 20260509043054 | 10 | 94 | 0.0 | 1.6 | 0.00 | 0.00 | 0.00 | 92 | 1007.4 |
| 20260509041551 | 10 | 352 | 0.0 | 3.2 | 0.00 | 0.00 | 0.00 | 91 | 1007.3 |
| 20260509040052 | 10 | 49 | 0.0 | 3.2 | 0.00 | 0.00 | 0.00 | 91 | 1007.1 |
| 20260509034542 | 10 | 90 | 0.0 | 0.0 | 0.00 | 0.00 | 0.00 | 89 | 1007.5 |
| 20260509033040 | 10 | 92 | 0.0 | 0.0 | 0.00 | 0.00 | 0.00 | 89 | 1007.8 |
| 20260509031539 | 10 | 92 | 0.0 | 0.0 | 0.00 | 0.00 | 0.00 | 88 | 1008.1 |
| 20260509030041 | 11 | 92 | 0.0 | 0.0 | 0.00 | 0.00 | 0.00 | 88 | 1008.1 |
| 20260509024538 | 11 | 92 | 0.0 | 1.6 | 0.00 | 0.00 | 0.00 | 88 | 1008.0 |
| 20260509023036 | 11 | 91 | 0.0 | 8.0 | 0.00 | 0.00 | 0.00 | 88 | 1008.1 |
| 20260509021536 | 10 | 89 | 0.0 | 0.0 | 0.00 | 0.00 | 0.00 | 88 | 1008.2 |
| 20260509020035 | 10 | 74 | 0.0 | 3.2 | 0.00 | 0.00 | 0.00 | 88 | 1008.3 |
| 20260509014535 | 10 | 71 | 0.0 | 1.6 | 0.00 | 0.00 | 0.00 | 88 | 1008.2 |
| 20260509013045 | 10 | 54 | 0.0 | 0.0 | 0.00 | 0.00 | 0.00 | 87 | 1008.1 |
| 20260509011532 | 10 | 51 | 0.0 | 0.0 | 0.00 | 0.00 | 0.00 | 86 | 1008.3 |
| 20260509010031 | 10 | 53 | 0.0 | 0.0 | 0.00 | 0.00 | 0.00 | 86 | 1008.5 |
| 20260509004552 | 10 | 105 | 0.0 | 0.0 | 0.00 | 0.00 | 0.00 | 85 | 1008.6 |
| 20260509003036 | 11 | 126 | 0.0 | 3.2 | 0.00 | 0.00 | 0.00 | 84 | 1008.7 |